FENGYUN 1C DEB

Satellite information

Favourite Embed

Satellite Type and Status

DEBRISIN ORBIT

Key statistics

Satellite FENGYUN 1C DEB at a glance.

Uptime

9715

Days in orbit

Revolutions

≈ 14.3

Per day

Orbit

SSO

Sun Synchronous Orbit

Inclination

98.7

Latest

Satellite identification and parameters

Extended collection of information and parameters for FENGYUN 1C DEB.

Object identification

Identified? True

Debris? True

Object name: FENGYUN 1C DEB

International designator: 1999-025EYL

Object number (NORAD): 41833

Object ID (CCSDS): 41833

Country: PEOPLES REPUBLIC OF CHINA (PRC)

Current information (Y/N): Y

RCS size: SMALL

Orbital parameters

Period: 100.994 minutes

Inclination: 98.748 deg

SMA: 7183.869 km

Apoapsis: 844.855 km

Periapsis: 766.613 km

RAAN: 57.22 deg

Eccentricy: 0.00544566

Argument of periapsis: 220.6373 deg

Mean anomaly: 139.0737 deg

Mean motion: 14.258215 rev/day

Mean motion (dot): 0.00005228 rev/day2

B* drag term: 0.0021817699 1/REarth

Two-line elements (TLE)

Creation date: Dec. 14, 2025, 3:07 a.m.

Reference frame: TEME

Reference center: EARTH

Epoch: Dec. 13, 2025, 3:44 p.m. UTC

TLE line 0: 0 FENGYUN 1C DEB

TLE line 1: 1 41833U 99025EYL 25347.65575222 .00005228 00000-0 21818-2 0 9998

TLE line 2: 2 41833 98.7480 57.2200 0054457 220.6373 139.0737 14.25821500473777

Live tracking on map

Real-time ground track for satellite FENGYUN 1C DEB.

In-orbit conjunctions

A list of the most updated potential collisions computed for object FENGYUN 1C DEB.

Target Orbit TCA Probability of collision Miss distance Type
OAO 1 LEO 2025-10-16 23:07:54 0.0004699587 90.0 (m) PAYLOAD
COSMOS 1066 DEB LEO 2024-09-26 17:29:53 0.0001018467 976.0 (m) DEBRIS

Associated space launch

Chinese polar orbiting meteorological satellite

FENGYUN 1C DEB was lifted into orbit during the mission ‘Long March 4B | Feng Yun 1C’, on board a Long March 4B space rocket.

The launch took place on May 10, 1999, 1:33 a.m. from Launch Complex 7.

For more information about the launch, click the button.

Launch to space Long March 4B | Feng Yun 1C
Long March 4B | Feng Yun 1C

Agency: N/A

Status: Launch Successful

Launch date: May 10, 1999, 1:33 a.m. UTC

Rocket: Long March 4B

Launch pad: Launch Complex 7

Location: Taiyuan Satellite Launch Center, People's Republic of China

...

Latest news about this satellite

There are no fresh news available about this satellite. Check back as we update our databases every day.


Newsletter sign-up

Weekly statistics, charts and insights to help you stay on top of the space industry.